Flag for Norway Weather past 2 weeks in Brønnøysund, Norway

Now
59 °F

Fog.


Feels Like: 59 °F
Forecast: 59 / 67 °F
Wind: 2 mph from North

Location: Bronnoysund / Bronnoy

Current Time: Jul 25, 2014 at 5:53:22 AM

Latest Report: Jul 25, 2014 at 3:50 AM


Visibility: 0 mi

Pressure: 30.18 "Hg

Humidity: 94%

Dew point: 57 °F

Location of BrønnøysundLocation

Historic Weather in Brønnøysund — Graph

°F

Brønnøysund temperature yesterday

Maximum temperature yesterday: 68 °F (at 2:50 PM)
Minimum temperature yesterday: 61 °F (at 5:50 AM)
Average temperature yesterday: 64 °F

Past Weeks' High & Low Weather Summary

 TemperatureHumidityPressure
High86 °F (Jul 10, 10:50 AM)100% (Jul 16, 6:50 AM)30.36 "Hg (Jul 16, 6:50 AM)
Low55 °F (Jul 16, 6:50 PM)35% (Jul 10, 8:50 AM)29.65 "Hg (Jul 14, 9:50 PM)
Average67 °F73%30.07 "Hg
* Reported Jul 10 5:50 AM — Jul 25 3:50 AM, Brønnøysund, Weather by CustomWeather, © 2014

Note: Actual official high and low records may vary slightly from our data, if they occured in-between our weather recording intervals... More about our weather records

Advertising

Brønnøysund weather history for previous 24 hours

 ConditionsComfort  
Time TempWeatherWind HumidityBarometerVisibility
3:50 AM
Jul 25
59 °FFog.2 mph94%30.18 "Hg0 mi
3:20 AM59 °FFog.2 mph94%30.18 "Hg1 mi
9:50 PM
Jul 24
63 °FPassing clouds.9 mph83%30.21 "HgN/A
8:50 PM63 °FPassing clouds.12 mph83%30.21 "HgN/A
7:50 PM64 °FSunny.13 mph78%30.21 "Hg10 mi
6:50 PM64 °FSunny.12 mph83%30.24 "Hg10 mi
5:50 PM66 °FSunny.12 mph78%30.24 "Hg10 mi
4:50 PM66 °FSunny.13 mph73%30.27 "Hg10 mi
3:50 PM66 °FPassing clouds.13 mph73%30.27 "HgN/A
2:50 PM68 °FSunny.13 mph73%30.27 "Hg10 mi
1:50 PM66 °FSunny.13 mph73%30.30 "Hg10 mi
12:50 PM64 °FScattered clouds.10 mph78%30.30 "HgN/A
11:50 AM64 °FScattered clouds.10 mph78%30.30 "HgN/A
10:50 AM66 °FBroken clouds.8 mph73%30.30 "HgN/A
9:50 AM63 °FPartly sunny.7 mph83%30.30 "HgN/A
9:20 AM63 °FPartly sunny.7 mph83%30.30 "HgN/A
8:50 AM63 °FPartly sunny.6 mph83%30.33 "HgN/A
7:50 AM61 °FPartly sunny.6 mph88%30.33 "HgN/A
6:50 AM61 °FPartly sunny.5 mph88%30.33 "HgN/A
6:20 AM61 °FPartly sunny.3 mph88%30.33 "HgN/A
5:50 AM61 °FPartly sunny.3 mph88%30.33 "HgN/A
Weather by CustomWeather, © 2014

See weather overviewHow to use our weather pages